Location: Mohawk View
(42.7837°N, 73.7885°W)
Time: 08:32:38
(UTC+00:00)

YAOGAN 11 - Pass Details

Date: 17 June 2021
Orbit: 614 x 668 km, 98.3° (Epoch: 27 July)

Event Time Altitude Azimuth Distance (km) Brightness Sun altitude
Exits shadow 05:54:03 59° 142° (SE) 743 4.2 -22.5°
Maximum altitude 05:54:49 77° 76° (ENE) 662 4.1 -22.5°
Drops below altitude 10° 05:59:18 10° 350° (N) 2,058 7.6 -22.2°
Sets 06:01:33 0° 349° (NNW) 2,982 8.6 -22.1°
